sat.trackr.live / text

‹ back to catalog

STARLINK-37359

NORAD 69188 · 2026-114G

PAYLOAD ACTIVE UNKNOWN

§ Identity

Operator
Country
US
Launch date
2026-05-25
Launch site
AFETR
Launch vehicle
Mass (kg)
RCS (m²)

Purposes: comms

External: N2YO · Heavens-Above · Gunter

§ Orbital elements

Epoch: 2026-09-19T23:32:08.558304Z

Period
93.85 min
Inclination
53.1561°
Eccentricity
0.0001550
Mean motion
15.34401436 rev/d
Perigee alt
461.6 km
Apogee alt
463.8 km
Semi-major
6,840.8 km
B*
4.8677e-4
RAAN
116.3553°
Arg perigee
85.5504°
Mean anomaly
274.5676°
Rev number
1,936

§ Raw data

STARLINK-373591 69188U 26114G   26262.98065461  .00016106  00000+0  48677-3 0  99912 69188  53.1561 116.3553 0001550  85.5504 274.5676 15.34401436 19364

JSON: /api/v1/satellites/69188 · /tle

For live sub-satellite position, see the globe view (requires WebGL).

§ Visibility from observer

Set your observer location to see the next 7 days of passes ≥ 10°. The values pass through the URL so the page stays shareable.

No JS? Fill the form by hand. The geolocation button needs JavaScript.